Location: Bathurst
(33.4193°S, 149.5775°E)
Time: 15:16:26
(UTC+11:00)

Envisat - Pass Details

Date: 01 February 2021
Orbit: 764 x 766 km, 98.1° (Epoch: 07 March)

Event Time Altitude Azimuth Distance (km) Brightness Sun altitude
Rises 04:56:00 0° 50° (NE) 3,223 6.4 -17.0°
Reaches altitude 10° 04:58:50 10° 66° (ENE) 2,306 5.9 -16.5°
Maximum altitude 05:02:29 20° 112° (ESE) 1,717 5.8 -15.9°
Drops below altitude 10° 05:06:09 10° 158° (SSE) 2,327 6.3 -15.3°
Sets 05:09:00 0° 174° (S) 3,262 6.8 -14.8°
